Location: Austin
(30.3000°N, 97.7500°W)
Time: 12:26:05
(UTC-05:00)

Cosmos 2341 Rocket - Pass Details

Date: 26 May 2023
Orbit: 968 x 1004 km, 82.9° (Epoch: 30 May)

Event Time Altitude Azimuth Distance (km) Brightness Sun altitude
Exits shadow 23:06:05 79° 155° (SSE) 987 3.8 -28.2°
Maximum altitude 23:06:27 85° 94° (E) 975 3.8 -28.2°
Drops below altitude 10° 23:12:40 10° 7° (N) 2,714 6.9 -29.0°
Sets 23:15:11 0° 7° (N) 3,666 7.7 -29.4°
